When you browse on this site, cookies collect data to enhance your experience and personalize the content and advertising you see.
Visit our Privacy Policy to learn more. By continuing to use the site, you agree to this use of cookies and data.
  • In Romania
  • List of Countries
  • For 7 days
  • Water Temperature
  • Satellite Maps
  • Weather Map
  • Weather Widgets
  • user-avatar
    Login

    Hourly Weather Kotovka

    Today, 18 November, Sunday

    Time Temperature Precipitation Wind Pressure Humidity
    00:00 -2°C° 0 mm 5 mps 748 mmHg 42%
    01:00 -2°C° 0 mm 5 mps 747 mmHg 43%
    02:00 -2°C° 0 mm 5 mps 747 mmHg 45%
    03:00 -2°C° 0 mm 5 mps 746 mmHg 46%
    04:00 -4°C° 0 mm 5 mps 745 mmHg 50%
    05:00 -3°C° 0 mm 4 mps 744 mmHg 53%
    06:00 -3°C° 0 mm 4 mps 744 mmHg 57%
    07:00 -3°C° 0 mm 4 mps 744 mmHg 61%
    08:00 -3°C° 0 mm 4 mps 743 mmHg 66%
    09:00 -3°C° 0 mm 4 mps 743 mmHg 70%
    10:00 -3°C° 0.1 mm 4 mps 743 mmHg 74%
    11:00 -3°C° 0.1 mm 4 mps 743 mmHg 77%
    12:00 -2°C° 0.1 mm 3 mps 743 mmHg 80%
    13:00 -2°C° 0.1 mm 3 mps 743 mmHg 81%
    14:00 -2°C° 0.1 mm 3 mps 743 mmHg 82%
    15:00 -1°C° 0.1 mm 2 mps 743 mmHg 83%
    16:00 -2°C° 0.1 mm 2 mps 743 mmHg 85%
    17:00 -2°C° 0.1 mm 2 mps 744 mmHg 87%
    18:00 -2°C° 0.1 mm 2 mps 744 mmHg 89%
    19:00 -2°C° 0 mm 2 mps 744 mmHg 90%
    20:00 0°C° 0 mm 1 mps 744 mmHg 91%
    21:00 0°C° 0 mm 1 mps 744 mmHg 92%
    22:00 0°C° 0 mm 1 mps 745 mmHg 92%
    23:00 0°C° 0 mm 1 mps 745 mmHg 93%

    Tomorrow, 19 November, Monday

    Time Temperature Precipitation Wind Pressure Humidity
    00:00 0°C° 0 mm 1 mps 745 mmHg 94%
    01:00 0°C° 0 mm 1 mps 746 mmHg 94%
    02:00 0°C° 0 mm 1 mps 746 mmHg 94%
    03:00 0°C° 0 mm 1 mps 746 mmHg 95%
    04:00 0°C° 0 mm 1 mps 746 mmHg 95%
    05:00 0°C° 0 mm 1 mps 746 mmHg 95%
    06:00 0°C° 0 mm 1 mps 747 mmHg 95%
    07:00 0°C° 0 mm 1 mps 747 mmHg 94%
    08:00 0°C° 0 mm 1 mps 747 mmHg 94%
    09:00 0°C° 0 mm 1 mps 748 mmHg 94%
    10:00 +1°C° 0 mm 1 mps 748 mmHg 92%
    11:00 +1°C° 0 mm 1 mps 748 mmHg 90%
    12:00 +2°C° 0 mm 1 mps 749 mmHg 88%
    13:00 +2°C° 0 mm 1 mps 749 mmHg 89%
    14:00 +2°C° 0 mm 1 mps 749 mmHg 90%
    15:00 +2°C° 0 mm 1 mps 749 mmHg 91%
    16:00 -1°C° 0 mm 2 mps 749 mmHg 92%
    17:00 -1°C° 0 mm 2 mps 749 mmHg 93%
    18:00 -1°C° 0 mm 2 mps 749 mmHg 95%
    19:00 -2°C° 0 mm 2 mps 749 mmHg 95%
    20:00 -2°C° 0 mm 2 mps 749 mmHg 96%
    21:00 -2°C° 0 mm 2 mps 750 mmHg 96%
    22:00 -2°C° 0 mm 2 mps 750 mmHg 96%
    23:00 -2°C° 0 mm 2 mps 750 mmHg 96%

    Day after tomorrow, 20 November, Tuesday

    Time Temperature Precipitation Wind Pressure Humidity
    00:00 -2°C° 0 mm 2 mps 750 mmHg 96%
    01:00 -2°C° 0 mm 2 mps 750 mmHg 96%
    02:00 -2°C° 0 mm 2 mps 750 mmHg 96%
    03:00 -2°C° 0 mm 3 mps 750 mmHg 96%
    04:00 -2°C° 0 mm 3 mps 749 mmHg 95%
    05:00 -2°C° 0 mm 3 mps 749 mmHg 94%
    06:00 -2°C° 0 mm 3 mps 749 mmHg 93%
    07:00 -2°C° 0 mm 3 mps 749 mmHg 92%
    08:00 -2°C° 0 mm 3 mps 749 mmHg 92%
    09:00 -2°C° 0 mm 3 mps 749 mmHg 91%
    10:00 -2°C° 0 mm 3 mps 749 mmHg 89%
    11:00 -1°C° 0 mm 3 mps 749 mmHg 87%
    12:00 -1°C° 0 mm 3 mps 749 mmHg 84%
    13:00 -1°C° 0 mm 3 mps 748 mmHg 84%
    14:00 -1°C° 0 mm 2 mps 748 mmHg 83%
    15:00 -1°C° 0 mm 2 mps 748 mmHg 83%
    16:00 -2°C° 0 mm 2 mps 748 mmHg 84%
    17:00 -2°C° 0 mm 2 mps 748 mmHg 86%
    18:00 -2°C° 0 mm 2 mps 748 mmHg 87%
    19:00 -2°C° 0 mm 2 mps 748 mmHg 86%
    20:00 -2°C° 0 mm 2 mps 748 mmHg 85%
    21:00 -2°C° 0 mm 2 mps 747 mmHg 84%
    22:00 -2°C° 0 mm 2 mps 747 mmHg 84%
    23:00 -3°C° 0 mm 2 mps 747 mmHg 83%

    21 November, Wednesday

    Time Temperature Precipitation Wind Pressure Humidity
    00:00 -3°C° 0 mm 2 mps 747 mmHg 83%
    01:00 -3°C° 0 mm 2 mps 747 mmHg 84%
    02:00 -3°C° 0 mm 2 mps 747 mmHg 84%
    03:00 -3°C° 0 mm 2 mps 747 mmHg 85%
    04:00 -4°C° 0 mm 2 mps 747 mmHg 85%
    05:00 -4°C° 0 mm 2 mps 747 mmHg 86%
    06:00 -5°C° 0 mm 3 mps 747 mmHg 87%
    07:00 -5°C° 0 mm 3 mps 747 mmHg 86%
    08:00 -5°C° 0 mm 3 mps 747 mmHg 86%
    09:00 -5°C° 0 mm 3 mps 747 mmHg 85%
    10:00 -4°C° 0 mm 3 mps 747 mmHg 82%
    11:00 -4°C° 0 mm 4 mps 747 mmHg 79%
    12:00 -3°C° 0 mm 4 mps 747 mmHg 76%
    13:00 -3°C° 0 mm 4 mps 747 mmHg 77%
    14:00 -3°C° 0 mm 4 mps 746 mmHg 77%
    15:00 -3°C° 0 mm 4 mps 746 mmHg 78%
    16:00 -4°C° 0 mm 4 mps 746 mmHg 79%
    17:00 -4°C° 0 mm 4 mps 746 mmHg 81%
    18:00 -4°C° 0 mm 4 mps 746 mmHg 82%
    19:00 -4°C° 0 mm 4 mps 746 mmHg 82%
    20:00 -4°C° 0 mm 3 mps 746 mmHg 83%
    21:00 -4°C° 0 mm 3 mps 746 mmHg 83%
    22:00 -4°C° 0 mm 3 mps 746 mmHg 83%
    23:00 -4°C° 0 mm 3 mps 746 mmHg 83%

    22 November, Thursday

    Time Temperature Precipitation Wind Pressure Humidity
    00:00 -4°C° 0 mm 3 mps 746 mmHg 83%
    01:00 -4°C° 0 mm 3 mps 746 mmHg 84%
    02:00 -4°C° 0 mm 3 mps 746 mmHg 85%
    03:00 -5°C° 0 mm 3 mps 746 mmHg 86%
    04:00 -5°C° 0 mm 3 mps 746 mmHg 87%
    05:00 -5°C° 0 mm 3 mps 746 mmHg 88%
    06:00 -5°C° 0 mm 3 mps 745 mmHg 88%
    07:00 -5°C° 0 mm 4 mps 745 mmHg 87%
    08:00 -5°C° 0 mm 4 mps 745 mmHg 85%
    09:00 -5°C° 0 mm 4 mps 745 mmHg 83%
    10:00 -6°C° 0 mm 5 mps 745 mmHg 80%
    11:00 -5°C° 0 mm 5 mps 744 mmHg 77%
    12:00 -4°C° 0 mm 6 mps 744 mmHg 74%
    13:00 -4°C° 0 mm 6 mps 744 mmHg 75%
    14:00 -4°C° 0 mm 6 mps 744 mmHg 76%
    15:00 -5°C° 0 mm 6 mps 744 mmHg 77%
    16:00 -5°C° 0 mm 6 mps 744 mmHg 78%
    17:00 -5°C° 0 mm 5 mps 744 mmHg 79%
    18:00 -5°C° 0 mm 5 mps 744 mmHg 79%
    19:00 -5°C° 0 mm 5 mps 744 mmHg 80%
    20:00 -5°C° 0 mm 5 mps 745 mmHg 81%
    21:00 -4°C° 0 mm 4 mps 745 mmHg 82%
    22:00 -4°C° 0 mm 4 mps 745 mmHg 84%
    23:00 -4°C° 0 mm 4 mps 746 mmHg 85%

    23 November, Friday

    Time Temperature Precipitation Wind Pressure Humidity
    00:00 -4°C° 0 mm 3 mps 746 mmHg 87%
    01:00 -4°C° 0 mm 3 mps 746 mmHg 89%
    02:00 -5°C° 0 mm 3 mps 747 mmHg 91%
    03:00 -5°C° 0 mm 3 mps 747 mmHg 93%
    04:00 -5°C° 0 mm 3 mps 747 mmHg 94%
    05:00 -5°C° 0 mm 3 mps 747 mmHg 95%
    06:00 -4°C° 0 mm 2 mps 748 mmHg 95%
    07:00 -4°C° 0 mm 2 mps 748 mmHg 95%
    08:00 -4°C° 0 mm 2 mps 748 mmHg 95%
    09:00 -4°C° 0 mm 2 mps 748 mmHg 95%
    10:00 -4°C° 0 mm 2 mps 748 mmHg 92%
    11:00 -4°C° 0 mm 3 mps 749 mmHg 89%
    12:00 -2°C° 0 mm 3 mps 749 mmHg 86%
    13:00 -2°C° 0 mm 3 mps 748 mmHg 85%
    14:00 -2°C° 0 mm 3 mps 748 mmHg 85%
    15:00 -2°C° 0 mm 3 mps 748 mmHg 85%
    16:00 -3°C° 0 mm 4 mps 748 mmHg 87%
    17:00 -4°C° 0 mm 4 mps 747 mmHg 89%
    18:00 -4°C° 0 mm 4 mps 747 mmHg 91%
    19:00 -4°C° 0 mm 4 mps 747 mmHg 91%
    20:00 -5°C° 0 mm 5 mps 746 mmHg 91%
    21:00 -5°C° 0 mm 5 mps 746 mmHg 91%
    22:00 -6°C° 0 mm 5 mps 745 mmHg 91%
    23:00 -6°C° 0 mm 6 mps 745 mmHg 91%
    Show more